Regional Weather Roundup
Issued by NWS

Home | Current Version | Previous Version | Graphics & Text | Print | Product List | Glossary On
Versions: 1 2 3 4 5 6 7 8 9 10 11 12 13 14 15 16 17 18 19 20 21 22 23 24 25 26 27 28 29 30 31 32 33 34 35 36 37 38 39 40 41 42 43 44 45 46 47 48 49 50
000
ASUS43 KLOT 100403
RWRIL

ILLINOIS REGIONAL WEATHER ROUNDUP
NATIONAL WEATHER SERVICE CHICAGO/ROMEOVILLE IL
1000 PM CST TUE FEB 09 2016

NOTE: "FAIR" INDICATES FEW OR NO CLOUDS BELOW 12,000 FEET WITH NO
SIGNIFICANT WEATHER AND/OR OBSTRUCTIONS TO VISIBILITY.

* THESE STATIONS ARE NOT UNDER NWS QUALITY CONTROL. THEY ALSO MAY NOT
  REPORT WEATHER SUCH AS PRECIPITATION OR FOG.

ILZ001-002-007-009-015-016-024-100500-
NORTHWEST ILLINOIS

CITY           SKY/WX    TMP DP  RH WIND       PRES   REMARKS
MOLINE         CLEAR     13   3  64 NW10      30.09R WCI   0
STERLING*      CLEAR     12   1  62 NW12G17   30.01R WCI  -2
$$

ILZ003-004-008-010-011-017-018-100500-
NORTH CENTRAL ILLINOIS

CITY           SKY/WX    TMP DP  RH WIND       PRES   REMARKS
ROCKFORD       CLOUDY    14   1  56 NW13      30.01R WCI   0
FREEPORT*      CLOUDY    11   0  60 NW13G18   30.03R WCI  -4
DE KALB*       CLOUDY    13   5  71 NW14      29.97R WCI  -3
$$

ILZ005-006-012>014-019>023-100500-
NORTHEAST ILLINOIS

CITY           SKY/WX    TMP DP  RH WIND       PRES   REMARKS
CHICAGO-OHARE  CLOUDY    14   7  73 NW14      29.94S WCI  -1
CHICAGO-MIDWAY FLURRIES  15   6  67 NW16G25   29.95S WCI  -1
AURORA         CLOUDY    15   6  67 NW15      29.97S WCI   0
WAUKEGAN       CLOUDY    13   6  74 NW10G18   29.92S WCI   0
DUPAGE AIRPORT CLOUDY    13   4  67 NW15      29.95S WCI  -3
WHEELING       MOCLDY    14   8  77 NW13      29.95S WCI   0
NORTHERLY ISL    N/A     16  10  77 W18         N/A  WCI   0
$$

LMZ740>746-100500-
SOUTHERN LAKE MICHIGAN

STATION/POSITION SKY/WX   TEMP    WIND        PRES    VSBY  WAVE
                          AIR SEA DIR/SP/G                  HT/PER
                          (F)     (DEG/KT/KT) (MB)    (MI)  (FT/S)
HARRISON CRIB              17     300/ 21/ 23   N/A
BURNHAM HARBOR             16     270/ 12/ 16   N/A
CALUMET HARBOR             16     290/ 11/ 19 1013.3S
BURNS HARBOR               19     300/ 20     1013.5R
MICHIGAN CITY              19     260/ 27/ 29   N/A
$$

ILZ025>027-034>036-040-047-049-050-058-095>099-100500-
WEST-CENTRAL ILLINOIS

CITY           SKY/WX    TMP DP  RH WIND       PRES   REMARKS
QUINCY         CLOUDY    15   5  64 NW20G30   30.14R WCI  -2
MACOMB*        CLEAR     13   7  78 NW15G23   30.13R WCI  -3
$$

ILZ028>032-037-038-041>044-048-051>054-059>061-100500-
CENTRAL ILLINOIS

CITY           SKY/WX    TMP DP  RH WIND       PRES   REMARKS
BLOOMINGTON    CLOUDY    14   7  74 NW21      30.02R WCI  -4
DECATUR        LGT SNOW  15   9  76 NW21      30.04R VSB 3/4 WCI  -2
PEORIA         CLOUDY    13   4  67 NW13      30.07R WCI  -2
SPRINGFIELD    MOCLDY    16   5  62 NW18G26   30.09R WCI   0
TAYLORVILLE    NOT AVBL
$$

ILZ033-039-045-046-055>057-062-063-100500-
EAST-CENTRAL ILLINOIS

CITY           SKY/WX    TMP DP  RH WIND       PRES   REMARKS
CHAMPAIGN      CLOUDY    15   9  76 W16       30.00S WCI  -1
MATTOON        LGT SNOW  16  10  77 NW16      30.01S WCI   1
$$

ILZ079-100>102-100500-
SOUTHWEST ILLINOIS

CITY           SKY/WX    TMP DP  RH WIND       PRES   REMARKS
BELLEVILLE     CLEAR     20  11  67 NW13G18   30.10R WCI   7
CAHOKIA*       PTCLDY    22   9  57 NW16G23   30.13R WCI   8
SPARTA*        CLOUDY    24  14  66 NW8G17    30.11S WCI  15
$$

ILZ064>066-069>071-074>076-080>082-084>086-088>090-092>094-100500-
SOUTH-CENTRAL ILLINOIS

CITY           SKY/WX    TMP DP  RH WIND       PRES   REMARKS
CARBONDALE     CLOUDY    19  13  77 CALM      30.10S
MARION         MOCLDY    19  16  86 CALM      30.10F
MT. VERNON     CLEAR     18   9  68 CALM      30.09S
CENTRALIA*     PTCLDY    19  10  68 NW12G20   30.08S WCI   7
SALEM*         CLEAR     19   9  63 NW13G20   30.08R WCI   6
$$

ILZ067-068-072-073-078-083-087-091-100500-
SOUTHEAST ILLINOIS

CITY           SKY/WX    TMP DP  RH WIND       PRES   REMARKS
LAWRENCEVILLE  CLOUDY    19  10  68 W16       30.05S WCI   4
HARRISBURG*    PTCLDY    16  13  88 W3        30.11S
$$

ABBREVIATIONS USED IN REMARKS
   TC - TEMPERATURE IN CELSIUS
  WCI - WIND CHILL INDEX
   HX - HEAT INDEX
  VSB - VISIBILITY
$$




USA.gov is the U.S. government's official web portal to all federal, state and local government web resources and services.